13/04/2024 13:15:00,0.826
13/04/2024 13:30:00,0.826
13/04/2024 13:45:00,0.826
13/04/2024 14:00:00,0.825
13/04/2024 14:15:00,0.826
13/04/2024 14:30:00,0.826
13/04/2024 14:45:00,0.825
13/04/2024 15:00:00,0.825
13/04/2024 15:15:00,0.826
13/04/2024 15:30:00,0.825
13/04/2024 15:45:00,0.822
13/04/2024 16:00:00,0.822
13/04/2024 16:15:00,0.822
13/04/2024 16:30:00,0.823
13/04/2024 16:45:00,0.821
13/04/2024 17:00:00,0.822
13/04/2024 17:15:00,0.821
13/04/2024 17:30:00,0.821
13/04/2024 17:45:00,0.818
13/04/2024 18:00:00,0.821
13/04/2024 18:15:00,0.82
13/04/2024 18:30:00,0.82
13/04/2024 18:45:00,0.819
13/04/2024 19:00:00,0.819
13/04/2024 19:15:00,0.822
13/04/2024 19:30:00,0.821
13/04/2024 19:45:00,0.821
13/04/2024 20:00:00,0.821
13/04/2024 20:15:00,0.822
13/04/2024 20:30:00,0.822
13/04/2024 20:45:00,0.822
13/04/2024 21:00:00,0.823
13/04/2024 21:15:00,0.824
13/04/2024 21:30:00,0.826
13/04/2024 21:45:00,0.826
13/04/2024 22:00:00,0.827
13/04/2024 22:15:00,0.831
13/04/2024 22:30:00,0.832
13/04/2024 22:45:00,0.836
13/04/2024 23:00:00,0.841
13/04/2024 23:15:00,0.844
13/04/2024 23:30:00,0.85
13/04/2024 23:45:00,0.853
14/04/2024 00:00:00,0.857
14/04/2024 00:15:00,0.861
14/04/2024 00:30:00,0.866
14/04/2024 00:45:00,0.871
14/04/2024 01:00:00,0.876
14/04/2024 01:15:00,0.88
14/04/2024 01:30:00,0.884
14/04/2024 01:45:00,0.889
14/04/2024 02:00:00,0.893
14/04/2024 02:15:00,0.899
14/04/2024 02:30:00,0.903
14/04/2024 02:45:00,0.908
14/04/2024 03:00:00,0.912
14/04/2024 03:15:00,0.915
14/04/2024 03:30:00,0.919
14/04/2024 03:45:00,0.923
14/04/2024 04:00:00,0.924
14/04/2024 04:15:00,0.927
14/04/2024 04:30:00,0.931
14/04/2024 04:45:00,0.932
14/04/2024 05:00:00,0.935
14/04/2024 05:15:00,0.936
14/04/2024 05:30:00,0.936
14/04/2024 05:45:00,0.935
14/04/2024 06:00:00,0.938
14/04/2024 06:15:00,0.939
14/04/2024 06:30:00,0.94
14/04/2024 06:45:00,0.94
14/04/2024 07:00:00,0.942
14/04/2024 07:15:00,0.941
14/04/2024 07:30:00,0.944
14/04/2024 07:45:00,0.943
14/04/2024 08:00:00,0.943
14/04/2024 08:15:00,0.945
14/04/2024 08:30:00,0.946
14/04/2024 08:45:00,0.943
14/04/2024 09:00:00,0.943
14/04/2024 09:15:00,0.944
14/04/2024 09:30:00,0.944
14/04/2024 09:45:00,0.945
14/04/2024 10:00:00,0.944
14/04/2024 10:15:00,0.943
14/04/2024 10:30:00,0.942
14/04/2024 10:45:00,0.941
14/04/2024 11:00:00,0.941
14/04/2024 11:15:00,0.94
14/04/2024 11:30:00,0.941
14/04/2024 11:45:00,0.943
14/04/2024 12:00:00,0.941
14/04/2024 12:15:00,0.942
14/04/2024 12:30:00,0.943
14/04/2024 12:45:00,0.943
14/04/2024 13:00:00,0.94
14/04/2024 13:15:00,0.94
14/04/2024 13:30:00,0.942
14/04/2024 13:45:00,0.938
14/04/2024 14:00:00,0.94
14/04/2024 14:15:00,0.938
14/04/2024 14:30:00,0.936
14/04/2024 14:45:00,0.936
14/04/2024 15:00:00,0.938
14/04/2024 15:15:00,0.937
14/04/2024 15:30:00,0.936
14/04/2024 15:45:00,0.934
14/04/2024 16:00:00,0.933
14/04/2024 16:15:00,0.933
14/04/2024 16:30:00,0.935
14/04/2024 16:45:00,0.933
14/04/2024 17:00:00,0.934
14/04/2024 17:15:00,0.934
14/04/2024 17:30:00,0.933
14/04/2024 17:45:00,0.932
14/04/2024 18:00:00,0.931
14/04/2024 18:15:00,0.931
14/04/2024 18:30:00,0.93
14/04/2024 18:45:00,0.932
14/04/2024 19:00:00,0.932
14/04/2024 19:15:00,0.934
14/04/2024 19:30:00,0.934
14/04/2024 19:45:00,0.934
14/04/2024 20:00:00,0.937
14/04/2024 20:15:00,0.938
14/04/2024 20:30:00,0.94
14/04/2024 20:45:00,0.944
14/04/2024 21:00:00,0.947
14/04/2024 21:15:00,0.952
14/04/2024 21:30:00,0.954
14/04/2024 21:45:00,0.957
14/04/2024 22:00:00,0.959
14/04/2024 22:15:00,0.963
14/04/2024 22:30:00,0.97
14/04/2024 22:45:00,0.971
14/04/2024 23:00:00,0.975
14/04/2024 23:15:00,0.979
14/04/2024 23:30:00,0.979
14/04/2024 23:45:00,0.981
15/04/2024 00:00:00,0.983
15/04/2024 00:15:00,0.984
15/04/2024 00:30:00,0.988
15/04/2024 00:45:00,0.99
15/04/2024 01:00:00,0.993
15/04/2024 01:15:00,0.999
15/04/2024 01:30:00,1.002
15/04/2024 01:45:00,1.007
15/04/2024 02:00:00,1.012
15/04/2024 02:15:00,1.011
15/04/2024 02:30:00,1.014
15/04/2024 02:45:00,1.017
15/04/2024 03:00:00,1.018
15/04/2024 03:15:00,1.021
15/04/2024 03:30:00,1.023
15/04/2024 03:45:00,1.025
15/04/2024 04:00:00,1.03
15/04/2024 04:15:00,1.033
15/04/2024 04:30:00,1.037
15/04/2024 04:45:00,1.041
15/04/2024 05:00:00,1.048
15/04/2024 05:15:00,1.051
15/04/2024 05:30:00,1.054
15/04/2024 05:45:00,1.056
15/04/2024 06:00:00,1.059
15/04/2024 06:15:00,1.063
15/04/2024 06:30:00,1.065
15/04/2024 06:45:00,1.067
15/04/2024 07:00:00,1.072
15/04/2024 07:15:00,1.072
15/04/2024 07:30:00,1.074
15/04/2024 07:45:00,1.076
15/04/2024 08:00:00,1.077
15/04/2024 08:15:00,1.079
15/04/2024 08:30:00,1.079
15/04/2024 08:45:00,1.081
15/04/2024 09:00:00,1.082
15/04/2024 09:15:00,1.083
15/04/2024 09:30:00,1.084
15/04/2024 09:45:00,1.087
15/04/2024 10:00:00,1.085
15/04/2024 10:15:00,1.086
15/04/2024 10:30:00,1.089
15/04/2024 10:45:00,1.091
15/04/2024 11:00:00,1.09
15/04/2024 11:15:00,1.092
15/04/2024 11:30:00,1.092
15/04/2024 11:45:00,1.093
15/04/2024 12:00:00,1.097
15/04/2024 12:15:00,1.095
15/04/2024 12:30:00,1.097
15/04/2024 12:45:00,1.099
15/04/2024 13:00:00,1.099
15/04/2024 13:15:00,1.102
15/04/2024 13:30:00,1.099
15/04/2024 13:45:00,1.103
15/04/2024 14:00:00,1.103
15/04/2024 14:15:00,1.105
15/04/2024 14:30:00,1.106
15/04/2024 14:45:00,1.107
15/04/2024 15:00:00,1.105
15/04/2024 15:15:00,1.105
15/04/2024 15:30:00,1.105
15/04/2024 15:45:00,1.103
15/04/2024 16:00:00,1.106
15/04/2024 16:15:00,1.108
15/04/2024 16:30:00,1.108
15/04/2024 16:45:00,1.105
15/04/2024 17:00:00,1.107
15/04/2024 17:15:00,1.109
15/04/2024 17:30:00,1.109
15/04/2024 17:45:00,1.108
15/04/2024 18:00:00,1.109
15/04/2024 18:15:00,1.11
15/04/2024 18:30:00,1.112
15/04/2024 18:45:00,1.117
15/04/2024 19:00:00,1.115
15/04/2024 19:15:00,1.117
15/04/2024 19:30:00,1.117
15/04/2024 19:45:00,1.118
15/04/2024 20:00:00,1.125
15/04/2024 20:15:00,1.123
15/04/2024 20:30:00,1.127
15/04/2024 20:45:00,1.128
15/04/2024 21:00:00,1.127
15/04/2024 21:15:00,1.13
15/04/2024 21:30:00,1.132
15/04/2024 21:45:00,1.132
15/04/2024 22:00:00,1.133
15/04/2024 22:15:00,1.135
15/04/2024 22:30:00,1.137
15/04/2024 22:45:00,1.141
15/04/2024 23:00:00,1.141
15/04/2024 23:15:00,1.141
15/04/2024 23:30:00,1.144
15/04/2024 23:45:00,1.146
16/04/2024 00:00:00,1.146
16/04/2024 00:15:00,1.151
16/04/2024 00:30:00,1.155
16/04/2024 00:45:00,1.155
16/04/2024 01:00:00,1.157
16/04/2024 01:15:00,1.161
16/04/2024 01:30:00,1.161
16/04/2024 01:45:00,1.165
16/04/2024 02:00:00,1.164
16/04/2024 02:15:00,1.173
16/04/2024 02:30:00,1.173
16/04/2024 02:45:00,1.173
16/04/2024 03:00:00,1.177
16/04/2024 03:15:00,1.179
16/04/2024 03:30:00,1.181
16/04/2024 03:45:00,1.184
16/04/2024 04:00:00,1.189
16/04/2024 04:15:00,1.191
16/04/2024 04:30:00,1.194
16/04/2024 04:45:00,1.197
16/04/2024 05:00:00,1.201
16/04/2024 05:15:00,1.202
16/04/2024 05:30:00,1.204
16/04/2024 05:45:00,1.205
16/04/2024 06:00:00,1.213
16/04/2024 06:15:00,1.211
16/04/2024 06:30:00,1.213
16/04/2024 06:45:00,1.213
16/04/2024 07:00:00,1.213
16/04/2024 07:15:00,1.213
16/04/2024 07:30:00,1.214
16/04/2024 07:45:00,1.214
16/04/2024 08:00:00,1.212
16/04/2024 08:15:00,1.213
16/04/2024 08:30:00,1.211
16/04/2024 08:45:00,1.213
16/04/2024 09:00:00,1.211
16/04/2024 09:15:00,1.212
16/04/2024 09:30:00,1.215
16/04/2024 09:45:00,1.211
16/04/2024 10:00:00,1.207
16/04/2024 10:15:00,1.209
16/04/2024 10:30:00,1.209
16/04/2024 10:45:00,1.211
16/04/2024 11:00:00,1.209
16/04/2024 11:15:00,1.209
16/04/2024 11:30:00,1.207
16/04/2024 11:45:00,1.205
16/04/2024 12:00:00,1.209
16/04/2024 12:15:00,1.207
16/04/2024 12:30:00,1.203
16/04/2024 12:45:00,1.205
16/04/2024 13:00:00,1.202
16/04/2024 13:15:00,1.198
16/04/2024 13:30:00,1.198
16/04/2024 13:45:00,1.197
16/04/2024 14:00:00,1.189
16/04/2024 14:15:00,1.193
16/04/2024 14:30:00,1.194
16/04/2024 14:45:00,1.191
16/04/2024 15:00:00,1.191
16/04/2024 15:15:00,1.187
16/04/2024 15:30:00,1.186
16/04/2024 15:45:00,1.179
16/04/2024 16:00:00,1.176
16/04/2024 16:15:00,1.175
16/04/2024 16:30:00,1.169
16/04/2024 16:45:00,1.169
16/04/2024 17:00:00,1.164
16/04/2024 17:15:00,1.162
16/04/2024 17:30:00,1.162
16/04/2024 17:45:00,1.157
16/04/2024 18:00:00,1.151
16/04/2024 18:15:00,1.149
16/04/2024 18:30:00,1.148
16/04/2024 18:45:00,1.144
16/04/2024 19:00:00,1.14
16/04/2024 19:15:00,1.139
16/04/2024 19:30:00,1.135
16/04/2024 19:45:00,1.129
16/04/2024 20:00:00,1.128
16/04/2024 20:15:00,1.125
16/04/2024 20:30:00,1.122
16/04/2024 20:45:00,1.122
16/04/2024 21:00:00,1.117
16/04/2024 21:15:00,1.113
16/04/2024 21:30:00,1.111
16/04/2024 21:45:00,1.109
16/04/2024 22:00:00,1.106
16/04/2024 22:15:00,1.104
16/04/2024 22:30:00,1.099
16/04/2024 22:45:00,1.095
16/04/2024 23:00:00,1.095
16/04/2024 23:15:00,1.09
16/04/2024 23:30:00,1.087
16/04/2024 23:45:00,1.087
17/04/2024 00:00:00,1.083
17/04/2024 00:15:00,1.081
17/04/2024 00:30:00,1.079
17/04/2024 00:45:00,1.077
17/04/2024 01:00:00,1.073
17/04/2024 01:15:00,1.07
17/04/2024 01:30:00,1.069
17/04/2024 01:45:00,1.064
17/04/2024 02:00:00,1.063
17/04/2024 02:15:00,1.061
17/04/2024 02:30:00,1.056
17/04/2024 02:45:00,1.053
17/04/2024 03:00:00,1.052
17/04/2024 03:15:00,1.05
17/04/2024 03:30:00,1.045
17/04/2024 03:45:00,1.044
17/04/2024 04:00:00,1.039
17/04/2024 04:15:00,1.039
17/04/2024 04:30:00,1.036
17/04/2024 04:45:00,1.033
17/04/2024 05:00:00,1.032
17/04/2024 05:15:00,1.028
17/04/2024 05:30:00,1.026
17/04/2024 05:45:00,1.025
17/04/2024 06:00:00,1.021
17/04/2024 06:15:00,1.02
17/04/2024 06:30:00,1.017
17/04/2024 06:45:00,1.014
17/04/2024 07:00:00,1.011
17/04/2024 07:15:00,1.01
17/04/2024 07:30:00,1.005
17/04/2024 07:45:00,1.001
17/04/2024 08:00:00,1
17/04/2024 08:15:00,0.999
17/04/2024 08:30:00,0.997
17/04/2024 08:45:00,0.994
17/04/2024 09:00:00,0.992
17/04/2024 09:15:00,0.992
17/04/2024 09:30:00,0.986
17/04/2024 09:45:00,0.985
17/04/2024 10:00:00,0.983
17/04/2024 10:15:00,0.979
17/04/2024 10:30:00,0.979
17/04/2024 10:45:00,0.975
17/04/2024 11:00:00,0.973
17/04/2024 11:15:00,0.973
17/04/2024 11:30:00,0.97
17/04/2024 11:45:00,0.967
17/04/2024 12:00:00,0.965
17/04/2024 12:15:00,0.962
17/04/2024 12:30:00,0.96
17/04/2024 12:45:00,0.959
17/04/2024 13:00:00,0.956
17/04/2024 13:15:00,0.955
17/04/2024 13:30:00,0.953
17/04/2024 13:45:00,0.951
17/04/2024 14:00:00,0.948
17/04/2024 14:15:00,0.947
17/04/2024 14:30:00,0.944
17/04/2024 14:45:00,0.94
17/04/2024 15:00:00,0.94
17/04/2024 15:15:00,0.939
17/04/2024 15:30:00,0.936
17/04/2024 15:45:00,0.933
17/04/2024 16:00:00,0.933
17/04/2024 16:15:00,0.931
17/04/2024 16:30:00,0.93
17/04/2024 16:45:00,0.929
17/04/2024 17:00:00,0.928
17/04/2024 17:15:00,0.925
17/04/2024 17:30:00,0.924
17/04/2024 17:45:00,0.921
17/04/2024 18:00:00,0.92
17/04/2024 18:15:00,0.917
17/04/2024 18:30:00,0.915
17/04/2024 18:45:00,0.914
17/04/2024 19:00:00,0.914
17/04/2024 19:15:00,0.912
17/04/2024 19:30:00,0.912
17/04/2024 19:45:00,0.912
17/04/2024 20:00:00,0.91
17/04/2024 20:15:00,0.908
17/04/2024 20:30:00,0.907
17/04/2024 20:45:00,0.906
17/04/2024 21:00:00,0.905
17/04/2024 21:15:00,0.904
17/04/2024 21:30:00,0.902
17/04/2024 21:45:00,0.9
17/04/2024 22:00:00,0.9
17/04/2024 22:15:00,0.898
17/04/2024 22:30:00,0.899
17/04/2024 22:45:00,0.897
17/04/2024 23:00:00,0.896
17/04/2024 23:15:00,0.895
17/04/2024 23:30:00,0.893
17/04/2024 23:45:00,0.892
18/04/2024 00:00:00,0.892
18/04/2024 00:15:00,0.891
18/04/2024 00:30:00,0.889
18/04/2024 00:45:00,0.888
18/04/2024 01:00:00,0.887
18/04/2024 01:15:00,0.886
18/04/2024 01:30:00,0.885
18/04/2024 01:45:00,0.884
18/04/2024 02:00:00,0.883
18/04/2024 02:15:00,0.883
18/04/2024 02:30:00,0.882
18/04/2024 02:45:00,0.88
18/04/2024 03:00:00,0.879
18/04/2024 03:15:00,0.878
18/04/2024 03:30:00,0.877
18/04/2024 03:45:00,0.877
18/04/2024 04:00:00,0.876
18/04/2024 04:15:00,0.875
18/04/2024 04:30:00,0.873
18/04/2024 04:45:00,0.873
18/04/2024 05:00:00,0.872
18/04/2024 05:15:00,0.871
18/04/2024 05:30:00,0.869
18/04/2024 05:45:00,0.869
18/04/2024 06:00:00,0.869
18/04/2024 06:15:00,0.868
18/04/2024 06:30:00,0.867
18/04/2024 06:45:00,0.865
18/04/2024 07:00:00,0.865
18/04/2024 07:15:00,0.864
18/04/2024 07:30:00,0.863
18/04/2024 07:45:00,0.861
18/04/2024 08:00:00,0.861
18/04/2024 08:15:00,0.859
18/04/2024 08:30:00,0.856
18/04/2024 08:45:00,0.857
18/04/2024 09:00:00,0.855
18/04/2024 09:15:00,0.854
18/04/2024 09:30:00,0.854
18/04/2024 09:45:00,0.854
18/04/2024 10:00:00,0.854
18/04/2024 10:15:00,0.853
18/04/2024 10:30:00,0.852
18/04/2024 10:45:00,0.849
18/04/2024 11:00:00,0.848
18/04/2024 11:15:00,0.845
18/04/2024 11:30:00,0.844
18/04/2024 11:45:00,0.842
18/04/2024 12:00:00,0.844
18/04/2024 12:15:00,0.84
